Weather History for Manas, Kyrgyzstan

Change the Weather History Date:

Tuesday, November 20, 2012

  Actual Average Record
Temperature  
Mean Temperature 20 °F -  
Max Temperature 26 °F - - ()
Min Temperature 14 °F - - ()
Degree Days  
Heating Degree Days 45    
Moisture  
Dew Point 21 °F    
Average Humidity 94    
Maximum Humidity 100    
Minimum Humidity 85    
Precipitation  
Precipitation 0.03 in - - ()
Sea Level Pressure  
Sea Level Pressure 30.76 in    
Wind  
Wind Speed 2 mph ()    
Max Wind Speed 9 mph    
Max Gust Speed -    
Visibility 2.8 miles    
Events Fog , Snow    
T = Trace of Precipitation, MM = Missing Value Source: Averaged Metar Reports

Daily Weather History Graph

Daily Weather History Graph

Search for Another Location

Airport:

Trip Planner

Search our weather history database for the weather conditions in past years. The results will help you decide how hot, cold, wet, or windy it might be!

Date:

Astronomy

Nov. 20, 2012 Rise Set
Actual Time 8:02 AM KGT 5:35 PM KGT
Civil Twilight 7:31 AM KGT 6:06 PM KGT
Nautical Twilight 6:56 AM KGT 6:40 PM KGT
Astronomical Twilight 6:22 AM KGT 7:14 PM KGT
Moon 1:17 PM KGT (11/20) No Moon Set
Length of Visible Light 10h 35m
Length of Day
9h 33m
Waxing Crescent, 46% of the Moon is Illuminated
Nov 20
Waxing Crescent
Nov 20
First Quarter
Nov 28
Full
Dec 6
Last Quarter
Dec 13
New

Hourly Weather History & Observations

Time (KGT) Temp. Windchill Dew Point Humidity Pressure Visibility Wind Dir Wind Speed Gust Speed Precip Events Conditions
12:55 AM 26.1 °F - 25.5 °F 98% 30.63 in 1.5 mi Calm Calm - N/A Snow Light Snow
1:55 AM 25.9 °F - 25.3 °F 98% 30.65 in 1.5 mi Calm Calm - N/A Snow Light Snow
2:45 AM 26.6 °F - 24.8 °F 93% 30.65 in 1.2 mi Calm Calm - N/A Snow Light Snow
2:55 AM 25.9 °F - 25.3 °F 98% 30.66 in 1.5 mi Calm Calm - N/A Snow Light Snow
3:55 AM 25.7 °F - 25.2 °F 98% 30.66 in 1.5 mi Calm Calm - N/A Snow Light Snow
4:05 AM 24.8 °F - 24.8 °F 100% 30.66 in 1.5 mi Calm Calm - N/A Snow Light Snow
4:55 AM 24.8 °F - 24.1 °F 97% 30.67 in 1.5 mi Calm Calm - N/A Snow Light Snow
5:55 AM 23.7 °F - 23.0 °F 97% 30.69 in - Calm Calm - N/A Snow Light Snow
6:35 AM 23.0 °F - 23.0 °F 100% 30.70 in 3.1 mi Calm Calm - N/A Snow Light Snow
6:55 AM 23.0 °F - 22.3 °F 97% 30.70 in 3.1 mi Calm Calm - N/A Snow Light Snow
7:55 AM 22.1 °F - 21.2 °F 96% 30.71 in 3.7 mi Calm Calm - N/A Snow Light Snow
8:55 AM 22.6 °F - 21.7 °F 96% 30.73 in 3.7 mi Calm Calm - N/A Snow Light Snow
9:10 AM 23.0 °F - 21.2 °F 93% 30.73 in 3.7 mi Calm Calm - N/A Snow Light Snow
9:55 AM 23.5 °F - 22.6 °F 96% 30.73 in 3.1 mi Calm Calm - N/A Snow Light Snow
10:08 AM 24.8 °F - 23.0 °F 93% 30.74 in - Calm Calm - N/A Snow Light Snow
10:55 AM 25.3 °F - 24.4 °F 96% 30.74 in - Calm Calm - N/A Snow Light Snow
11:55 AM 24.8 °F - 23.4 °F 94% 30.75 in - WNW 2.3 mph - N/A Snow Light Snow
12:25 PM 24.8 °F - 23.0 °F 93% 30.74 in 2.5 mi NW 2.3 mph - N/A Snow Light Snow
12:35 PM 24.8 °F - 23.0 °F 93% 30.75 in 3.7 mi WNW 2.3 mph - N/A Snow Light Snow
12:55 PM 24.8 °F - 22.8 °F 92% 30.74 in 5.0 mi NW 2.3 mph - N/A Snow Light Snow
1:37 PM 24.8 °F - 23.0 °F 93% 30.74 in 5.6 mi NW 2.3 mph - N/A Snow Light Snow
1:55 PM 25.5 °F - 22.5 °F 88% 30.74 in 5.6 mi WNW 2.3 mph - N/A Snow Light Snow
2:55 PM 25.0 °F - 21.2 °F 86% 30.76 in 6.2 mi WNW 2.3 mph - N/A Snow Light Snow
3:30 PM 24.8 °F - 21.2 °F 86% 30.77 in 6.2 mi West 2.3 mph - N/A   Mostly Cloudy
3:55 PM 24.3 °F 19.9 °F 20.5 °F 85% 30.78 in 6.2 mi West 3.5 mph - N/A   Mostly Cloudy
4:26 PM 23.0 °F 15.8 °F 19.4 °F 86% 30.79 in 5.6 mi West 5.8 mph - N/A Snow Light Snow
4:55 PM 20.7 °F 11.0 °F 18.1 °F 90% 30.81 in 6.2 mi West 8.1 mph - N/A Snow Light Snow Showers
5:55 PM 14.4 °F 4.3 °F 13.1 °F 95% 30.85 in 6.2 mi West 6.9 mph - N/A Snow Light Snow
6:24 PM 17.6 °F 7.3 °F 15.8 °F 93% 30.85 in - WSW 8.1 mph - N/A Snow Light Snow Showers
6:29 PM 17.6 °F 6.4 °F 17.6 °F 100% 30.85 in 1.0 mi WSW 9.2 mph - N/A Snow Light Snow Showers
6:31 PM 17.6 °F 6.4 °F 17.6 °F 100% 30.85 in 0.5 mi WSW 9.2 mph - N/A Fog , Snow Light Snow Showers
6:55 PM 17.6 °F 7.3 °F 16.9 °F 97% 30.86 in 0.2 mi West 8.1 mph - N/A Fog Light Freezing Fog
7:13 PM 17.6 °F 7.3 °F 17.6 °F 100% 30.86 in 0.2 mi WSW 8.1 mph - N/A Fog , Snow Light Snow
7:55 PM 17.8 °F 8.5 °F 16.7 °F 96% 30.87 in 0.2 mi West 6.9 mph - N/A Fog , Snow Light Snow
8:55 PM 17.1 °F 10.0 °F 15.6 °F 94% 30.88 in 0.2 mi West 4.6 mph - N/A Fog , Snow Light Snow
9:55 PM 17.2 °F - 16.0 °F 95% 30.88 in 0.2 mi WSW 1.2 mph - N/A Fog , Snow Light Snow
10:55 PM 17.1 °F - 15.6 °F 94% 30.87 in 0.5 mi Variable 1.2 mph - N/A Fog , Snow Light Snow
11:55 PM 16.7 °F - 15.3 °F 94% 30.87 in 1.0 mi West 2.3 mph - N/A Fog , Snow Light Snow